Other Surface Observations
Issued by NWS Charleston, SC

Home | Current Version | Previous Version | Text Only | Print | Product List | Glossary On
Versions: 1 2 3 4 5 6 7 8 9 10 11 12 13 14 15 16 17 18 19 20 21 22 23 24 25 26 27 28 29 30 31 32 33 34 35 36 37 38 39 40 41 42 43 44 45 46 47 48 49 50
000
SXUS52 KCHS 051927
OSOCHS

MARINE OBSERVATIONS
NATIONAL WEATHER SERVICE CHARLESTON SC
300 PM EDT SUN JUL 05 2015

...DOWNTOWN CHARLESTON AND HARBOR...

CITY           SKY/WX    TMP DP  RH WIND       PRES   REMARKS
WATERFRONT PRK   N/A     84  76  77 S10       30.10F HX  93
FORT JOHNSON   NOT AVBL

...LAKE MOULTRIE...

CITY           SKY/WX    TMP DP  RH WIND       PRES   REMARKS
PINOPOLIS      NOT AVBL

...LAKE AND SUPPLEMENTAL COASTAL OBSERVATIONS...

STATION/POSITION TIME  TEMP    WIND        PRES    WAVE   SWELL
                       AIR SEA DIR/SP/G            HT/PER HT/PER/DIR
                 (UTC) (F)     (DEG/KT/KT) (MB)    (FT/S) (FT/S/D)
FORT PULASKI     1900   85 84  140/  6/ 11 1020.6F
SAPELO ISLAND    1900   89     130/ 10     1020.0S
UPR LAKE MARION  NOT AVBL
WINYAH BAY       1800   88     220/  6     1019.0
LAKE MURRAY      1900   78     230/  7/ 27 1018.3F
ACE BASIN NERRS  1800   87     160/  3     1021.0S


...C-MAN AND BUOY OBSERVATIONS...

STATION/POSITION TIME  TEMP    WIND        PRES    WAVE   SWELL
                       AIR SEA DIR/SP/G            HT/PER HT/PER/DIR
                 (UTC) (F)     (DEG/KT/KT) (MB)    (FT/S) (FT/S/D)
BUOY 41004       1850   82 83  190/ 12/ 16 1020.6F   3/ 9   2/ 9
BUOY 41008       1850   79 80  170/ 10/ 12 1020.8F   2/ 8   2/110/ 8
FOLLY BEACH CMAN 1900   81     170/ 13/ 15 1020.5F
CAPERS NS BUOY   1808   82     200/ 12/ 14 1021.1F
FRIPP NS BUOY    1800   82     190/ 10/ 12 1020.6S
5E ST. MARYS GA  1821      79                N/A     2/10


STATION/POSITION TIME  TEMP    WIND        PRES    WAVE   SWELL
                       AIR SEA DIR/SP/G            HT/PER HT/PER/DIR
                 (UTC) (F)     (DEG/KT/KT) (MB)    (FT/S) (FT/S/D)
FRYING PAN BUOY  1850   81 80  190/ 10/ 12 1021.3F   3/ 8   2/130/ 8
BUOY 41025       1850   81 81  220/ 12/ 14 1020.6F   3/ 5   2/140/ 9
CAPE LOOKOUT NC  1900   82     200/ 13/ 15 1020.4F
BUOY 41002       1850   80 80  200/ 10/ 12 1023.1F   4/ 9   3/150/ 9
BUOY 41010       1820   77 84   30/ 10/ 12 1023.0F
ST AUGUSTINE FL  1900   78 76  130/ 11/ 12 1021.2F

$$



USA.gov is the U.S. government's official web portal to all federal, state and local government web resources and services.